CAPE
0 0 0 0 0 0 0 0 0 0 0 0 0 0 0 0 0 0 0 0 0 0 0 0 0 0 0 0 0 0 0 0 0 0 0 0 0 0 0 9 82 294 166
0 0 0 0 0 0 0 0 0 0 0 0 0 0 0 0 0 0 0 0 0 0 0 0 0 0 0 0 0 0 0 0 0 0 0 0 0 0 0 54 81 325 423
0 0 0 0 0 0 0 0 0 0 0 0 0 0 0 0 0 0 0 0 0 0 0 0 0 0 0 0 0 0 0 1 1 0 0 1 0 0 1 17 129 164 241
0 0 0 0 0 0 0 0 0 0 0 0 0 0 0 0 0 0 0 0 0 0 0 0 0 0 0 0 0 0 0 0 0 0 3 0 0 1 1 15 102 82 63
0 0 0 0 0 0 0 0 0 0 0 0 0 0 0 0 0 0 0 0 0 0 0 0 0 0 0 0 0 0 0 0 0 0 0 0 0 1 1 4 6 29 6
0 0 0 0 0 0 0 0 0 0 0 0 0 0 0 0 0 0 0 0 0 0 0 0 0 0 0 0 0 0 0 0 0 0 0 0 2 2 6 1 6 5 3
0 0 0 0 0 0 0 0 0 0 0 0 0 0 0 0 0 0 0 0 0 0 0 0 0 0 0 0 0 0 0 0 0 0 0 0 0 0 0 2 9 15 14
0 0 0 0 0 0 0 0 0 0 0 0 0 0 0 0 0 0 0 0 0 0 0 0 0 0 0 0 0 0 0 0 0 0 0 0 0 0 0 0 1 5 7
0 0 0 0 0 0 0 0 0 0 0 0 0 0 0 0 0 0 0 0 0 0 0 0 0 0 0 0 0 0 0 0 0 0 0 0 0 0 0 0 0 0 1
0 0 0 0 0 0 0 0 0 0 0 0 0 0 0 0 0 0 0 0 0 0 0 0 0 0 0 0 0 0 0 0 0 0 0 0 0 0 0 0 0 0 0
0 0 0 0 0 0 0 0 0 0 0 0 0 0 0 0 0 0 0 0 0 0 0 0 0 0 0 0 0 0 0 0 0 0 0 0 0 0 0 0 0 0 0
0 0 0 0 0 0 0 0 0 0 0 0 0 0 0 0 0 0 0 0 0 0 0 0 0 0 0 0 0 0 0 0 0 0 0 0 0 0 0 0 0 0 0
0 0 0 0 0 0 0 0 0 0 0 0 0 0 0 0 0 0 0 0 0 0 0 0 0 0 0 0 0 0 0 0 0 0 0 0 0 0 0 0 0 0 0
0 0 0 0 0 0 0 0 0 0 0 0 0 0 0 0 0 0 0 0 0 0 0 0 0 0 0 0 0 0 0 0 0 0 0 0 0 0 0 0 0 0 0
0 0 0 0 0 0 0 0 0 0 0 0 0 0 0 0 0 0 0 0 0 0 0 0 0 0 0 0 0 0 0 0 0 0 0 0 0 0 0 0 0 0 0
0 0 0 0 0 0 0 0 0 0 0 0 0 0 0 0 0 0 0 0 0 0 0 0 0 0 0 0 0 0 0 0 0 0 0 0 0 0 0 0 0 0 0
0 0 0 0 0 0 0 0 0 0 0 0 0 0 0 0 0 0 0 0 0 0 0 0 0 0 0 0 0 0 0 0 0 0 0 0 0 0 0 0 0 0 0
0 0 0 0 0 0 0 0 0 0 0 0 0 0 0 0 0 0 0 0 0 0 0 0 0 0 0 0 0 0 0 0 0 0 0 0 0 0 0 0 0 0 0
0 0 0 0 0 0 0 0 0 0 0 0 0 0 0 0 0 0 0 0 0 0 0 0 0 0 0 0 0 0 0 0 0 0 0 0 0 0 0 0 0 0 0
0 0 0 0 0 0 0 0 0 0 0 0 0 0 0 0 0 0 0 0 0 0 0 0 0 0 0 0 0 0 0 0 0 0 0 0 0 0 0 0 0 0 0
0 0 0 0 0 0 0 0 0 0 0 0 0 0 0 0 0 0 0 0 0 0 0 0 0 0 0 0 0 0 0 0 0 0 0 0 0 0 0 0 0 0 0
0 0 0 0 0 0 0 0 0 0 0 0 0 0 0 0 0 0 0 0 0 0 0 0 0 0 0 0 0 0 0 0 0 0 0 0 0 0 0 0 0 1 0
0 0 0 0 0 0 0 0 0 0 0 0 0 0 0 0 0 0 0 0 0 0 0 0 0 0 0 0 0 0 0 0 0 0 0 0 0 0 0 0 0 0 5
0 0 0 0 0 0 0 0 0 0 0 0 0 0 0 0 0 0 0 0 0 0 0 0 0 0 0 0 0 0 0 3 0 0 0 0 0 0 0 0 0 0 1
0 0 0 0 0 0 0 0 0 0 0 0 0 0 0 0 0 0 0 0 0 0 0 0 0 0 0 0 0 0 1 0 0 3 0 0 0 0 0 0 0 0 0
0 0 0 0 0 0 0 0 0 0 0 0 0 0 0 0 0 0 0 0 0 0 0 0 0 0 0 0 0 0 0 0 1 0 0 0 0 0 0 1 1 0 1
CIN
0 0 0 0 0 0 0 0 0 0 0 0 0 0 0 0 0 0 0 0 0 0 0 0 0 0 0 0 0 0 0 0 0 0 0 0 0 0 0 -19 -4 -2 -49
0 0 0 0 0 0 0 0 0 0 0 0 0 0 0 0 0 0 0 0 0 0 0 0 0 0 0 0 0 0 0 0 0 -1 0 0 0 0 0 -18 -9 -4 -10
0 0 0 0 0 0 0 0 0 0 0 0 0 0 0 0 0 0 0 0 0 0 0 0 0 0 0 0 0 0 0 0 0 0 0 0 0 0 -21 -31 -37 -21 -8
0 0 0 0 0 0 0 0 0 0 0 0 0 0 0 0 0 0 0 0 0 0 0 0 0 0 0 0 0 0 0 0 0 0 -4 0 0 -4 -18 -32 -5 -39 -21
0 0 0 0 0 0 0 0 0 0 0 0 0 0 0 0 0 0 0 0 0 0 0 0 0 0 0 0 0 0 0 0 0 0 0 0 -1 -20 -9 -31 -6 -6 -41
0 0 0 0 0 0 0 0 0 0 0 0 0 0 0 0 0 0 0 0 0 0 0 0 0 0 0 0 0 0 0 0 0 0 0 0 0 0 -1 0 -20 -20 -57
0 0 0 0 0 0 0 0 0 0 0 0 0 0 0 0 0 0 0 0 0 0 0 0 0 0 0 0 0 0 0 0 0 0 0 0 0 0 0 0 -12 -18 -23
0 0 0 0 0 0 0 0 0 0 0 0 0 0 0 0 0 0 0 0 0 0 0 0 0 0 0 0 0 0 0 0 0 0 0 0 0 0 0 0 0 -13 -27
0 0 0 0 0 0 0 0 0 0 0 0 0 0 0 0 0 0 0 0 0 0 0 0 0 0 0 0 0 0 0 0 0 0 0 0 0 0 0 0 0 0 0
0 0 0 0 0 0 0 0 0 0 0 0 0 0 0 0 0 0 0 0 0 0 0 0 0 0 0 0 0 0 0 0 0 0 0 0 0 0 0 0 0 0 0
0 0 0 0 0 0 0 0 0 0 0 0 0 0 0 0 0 0 0 0 0 0 0 0 0 0 0 0 0 0 0 0 0 0 0 0 0 0 0 0 0 0 0
0 0 0 0 0 0 0 0 0 0 0 0 0 0 0 0 0 0 0 0 0 0 0 0 0 0 0 0 0 0 0 0 0 0 0 0 0 0 0 0 0 0 0
0 0 0 0 0 0 0 0 0 0 0 0 0 0 0 0 0 0 0 0 0 0 0 0 0 0 0 0 0 0 0 0 0 0 0 0 0 0 0 0 0 0 0
0 0 0 0 0 0 0 0 0 0 0 0 0 0 0 0 0 0 0 0 0 0 0 0 0 0 0 0 0 0 0 0 0 0 0 0 0 0 0 0 0 0 0
0 0 0 0 0 0 0 0 0 0 0 0 0 0 0 0 0 0 0 0 0 0 0 0 0 0 0 0 0 0 0 0 0 0 0 0 0 0 0 0 0 0 0
0 0 0 0 0 0 0 0 0 0 0 0 0 0 0 0 0 0 0 0 0 0 0 0 0 0 0 0 0 0 0 0 0 0 0 0 0 0 0 0 0 0 0
0 0 0 0 0 0 0 0 0 0 0 0 0 0 0 0 0 0 0 0 0 0 0 0 0 0 0 0 0 0 0 0 0 0 0 0 0 0 0 0 0 0 0
0 0 0 0 0 0 0 0 0 0 0 0 0 0 0 0 0 0 0 0 0 0 0 0 0 0 0 0 0 0 0 0 0 0 0 0 0 0 0 0 0 0 0
0 0 0 0 0 0 0 0 0 0 0 0 0 0 0 0 0 0 0 0 0 0 0 0 0 0 0 0 0 0 0 0 0 0 0 0 0 0 0 0 0 0 0
0 0 0 0 0 0 0 0 0 0 0 0 0 0 0 0 0 0 0 0 0 0 0 0 0 0 0 0 0 0 0 0 0 0 0 0 0 0 0 0 0 0 0
0 0 0 0 0 0 0 0 0 0 0 0 0 0 0 0 0 0 0 0 0 0 0 0 0 0 0 0 0 0 0 0 0 0 0 0 0 0 0 0 0 0 0
0 0 0 0 0 0 0 0 0 0 0 0 0 0 0 0 0 0 0 0 0 0 0 0 0 0 0 0 0 0 0 0 0 0 0 0 0 0 0 0 0 -1 0
0 0 0 0 0 0 0 0 0 0 0 0 0 0 0 0 0 0 0 0 0 0 0 0 0 0 0 0 0 0 0 0 0 0 0 0 0 0 0 0 0 0 -2
0 0 0 0 0 0 0 0 0 0 0 0 0 0 0 0 0 0 0 0 0 0 0 0 0 0 0 0 0 0 -1 0 -1 0 0 0 0 0 0 0 0 0 -2
0 0 0 0 0 0 0 0 0 0 0 0 0 0 0 0 0 0 0 0 0 0 0 0 0 0 0 0 0 -1 -1 -1 0 -2 0 0 0 0 0 0 -10 0 0
0 0 0 0 0 0 0 0 0 0 0 0 0 0 0 0 0 0 0 0 0 0 0 0 0 0 0 0 0 0 0 0 0 -2 0 0 0 0 0 0 0 0 0
Wind_Speed
15 13 13 14 15 16 18 20 23 25 27 27 26 25 25 26 22 23 24 27 28 29 29 29 30 31 31 31 31 30 31 31 31 32 34 29 28 28 23 17 8 21 28
13 13 13 14 15 17 19 21 23 27 26 22 20 20 22 22 20 21 22 26 29 30 29 30 30 30 30 31 31 31 29 27 32 30 28 29 28 29 27 24 22 19 18
14 14 14 15 16 19 22 23 25 27 26 22 20 20 21 23 23 23 26 27 31 31 30 30 29 29 29 29 29 28 29 28 30 30 24 26 26 26 21 24 25 18 12
14 14 15 16 19 21 22 23 25 26 26 23 21 22 24 28 25 26 26 32 33 32 30 29 28 28 28 28 28 26 26 26 28 27 21 19 18 22 21 18 16 9 10
13 15 16 17 17 19 21 23 25 26 27 26 23 24 26 26 27 28 31 32 34 33 30 27 27 27 26 26 26 26 25 24 23 23 21 19 17 14 17 15 11 11 10
13 14 15 16 17 20 22 25 28 29 30 29 28 27 28 31 33 35 38 38 36 34 31 28 26 24 25 26 25 23 22 23 22 21 20 18 16 14 12 12 12 13 14
11 13 15 17 20 23 25 27 29 31 32 32 32 32 32 33 36 37 39 39 37 35 33 29 27 26 25 24 23 23 20 21 21 20 18 16 13 12 10 7 8 9 10
11 13 16 18 22 25 27 29 31 32 33 34 34 34 34 35 35 36 37 37 36 35 32 30 28 26 25 24 23 22 20 20 21 20 18 17 15 13 11 8 7 5 5
10 13 16 20 23 25 27 30 32 33 34 34 35 35 35 35 36 37 37 37 36 34 33 31 29 27 26 25 23 22 21 23 22 22 22 20 17 16 13 10 8 7 5
11 12 16 21 24 26 28 31 33 34 35 35 36 35 35 36 36 36 38 38 37 34 34 33 30 28 26 25 23 23 22 22 23 23 23 22 22 20 19 17 15 13 13
11 13 18 23 26 28 30 32 33 34 35 36 36 36 36 36 36 36 37 37 36 36 35 34 33 31 29 28 27 25 25 25 25 25 25 26 25 24 24 23 21 20 17
14 15 20 25 28 30 31 32 34 35 36 36 36 36 35 36 37 37 37 37 37 37 36 36 35 33 32 30 28 28 27 27 28 28 28 28 27 27 25 25 25 25 23
16 18 23 27 30 31 31 34 35 36 36 37 36 36 36 36 37 37 37 37 37 37 37 36 36 36 35 34 32 30 28 27 28 28 29 30 29 29 28 27 27 26 26
19 21 24 26 29 30 32 34 35 35 36 36 36 35 36 36 37 36 37 37 37 37 38 37 37 37 36 35 34 32 30 29 28 28 28 28 28 29 29 28 27 27 26
20 22 24 27 29 31 32 33 34 36 36 36 35 35 35 36 36 37 37 38 38 38 38 38 38 38 37 36 35 33 33 31 30 30 30 30 29 29 28 29 29 28 28
19 21 25 28 31 32 34 35 36 37 36 36 36 36 37 37 37 38 38 38 38 38 39 39 39 39 38 38 36 35 34 34 33 34 33 32 31 31 30 29 29 28 29
19 23 26 29 31 33 34 38 38 37 37 36 36 37 37 38 38 38 39 40 40 40 40 41 40 41 40 38 38 36 35 34 34 34 34 34 32 31 31 30 30 29 28
21 25 28 31 34 35 37 37 37 37 37 36 36 37 38 38 39 39 39 40 39 40 41 41 41 41 40 40 39 38 36 36 35 34 34 34 34 32 31 31 32 32 31
24 28 29 32 34 35 35 36 37 37 37 37 37 38 38 40 41 41 41 41 41 41 41 40 41 42 41 40 40 40 38 38 37 35 34 34 34 32 31 32 33 34 33
28 32 33 35 35 35 34 37 39 39 40 39 38 38 38 39 40 40 40 39 39 40 40 41 39 40 41 40 40 40 40 41 40 37 35 34 33 32 30 30 31 34 33
34 35 37 39 37 36 36 40 40 41 39 38 38 38 38 39 39 39 38 39 41 41 42 42 42 41 40 41 42 41 40 41 42 41 39 35 34 32 30 28 28 30 29
38 39 40 40 37 35 38 42 43 40 38 39 40 40 39 39 39 40 41 41 42 44 45 45 46 43 42 41 42 43 43 42 43 43 40 38 37 35 33 30 28 27 27
40 40 41 41 40 39 39 41 40 38 39 41 41 41 40 41 41 42 44 44 43 44 46 46 47 48 46 45 43 44 44 44 44 42 42 41 40 36 34 31 30 29 28
41 40 40 41 42 40 39 38 40 39 41 43 43 42 43 44 43 42 42 43 44 45 46 47 48 49 48 48 46 46 45 45 45 44 44 42 42 39 36 34 32 31 29
39 38 40 42 42 42 42 42 42 41 43 43 43 43 43 44 45 44 44 44 43 42 45 46 46 48 50 48 47 48 47 47 46 48 45 43 42 41 38 36 34 32 31
39 40 42 43 44 44 44 44 42 42 44 46 46 45 45 45 45 47 50 44 44 45 43 44 44 45 43 45 45 45 46 46 47 47 46 46 43 41 39 37 36 33 31
Wind_Direction
350 1 2 1 360 0 357 351 343 335 325 328 333 340 335 333 352 355 351 342 336 325 330 331 333 338 343 347 351 356 359 3 6 3 5 12 15 21 25 34 68 238 248
360 4 2 0 1 358 356 352 343 323 328 347 354 357 347 348 358 358 354 344 329 324 331 333 336 341 343 347 351 355 360 5 6 9 14 16 23 25 37 42 34 313 282
354 358 2 3 356 350 346 344 329 322 333 349 358 356 351 348 351 354 348 342 324 322 329 334 339 340 344 347 350 356 359 3 5 10 21 22 24 25 44 52 42 349 303
1 4 0 356 349 344 343 337 327 327 337 350 355 349 345 338 344 346 345 329 319 320 329 333 337 340 343 345 348 354 358 3 3 11 25 28 31 37 46 66 89 285 290
3 357 356 359 357 350 343 335 335 339 342 348 352 346 340 339 339 340 334 330 320 321 327 334 336 340 343 345 347 351 355 360 4 12 19 29 37 58 60 76 115 158 245
1 2 8 7 358 346 338 333 333 337 341 344 343 342 338 335 333 327 320 311 316 320 325 330 335 340 340 341 345 349 353 354 359 6 16 26 38 44 63 78 99 116 158
3 1 0 353 343 334 332 335 337 337 338 339 338 336 335 334 328 325 319 313 315 319 324 330 333 335 337 339 342 345 350 351 353 357 5 16 29 38 53 77 95 106 129
352 352 349 343 337 335 336 337 337 337 338 338 338 337 333 332 331 330 325 322 322 322 327 328 330 332 333 335 338 340 344 345 345 347 352 357 7 18 31 48 55 88 108
356 351 346 342 339 339 340 339 338 338 338 339 338 337 337 333 329 324 325 325 326 328 328 330 330 331 331 332 333 334 335 334 335 334 336 340 346 350 357 7 15 15 17
345 346 345 341 339 339 339 338 337 337 338 337 335 338 337 334 331 329 327 327 328 330 330 330 331 331 330 331 330 329 330 329 329 328 329 330 330 332 333 335 335 336 330
340 340 338 337 336 336 336 336 337 338 338 338 337 338 338 335 335 333 332 332 332 332 331 331 331 330 329 327 325 324 324 324 323 323 322 321 322 321 320 320 319 317 316
332 335 334 335 335 334 335 337 337 337 336 338 338 339 339 337 336 335 334 334 333 332 332 331 330 329 328 327 323 321 320 318 318 317 317 315 316 315 315 315 312 310 310
326 327 329 330 331 332 334 335 335 335 336 337 338 338 338 338 337 337 337 336 335 334 334 334 333 330 328 325 323 320 317 316 315 314 312 311 311 309 310 309 308 307 305
317 321 325 329 331 332 333 333 334 335 336 336 337 337 336 336 337 338 338 338 339 338 337 336 334 333 331 328 325 321 318 315 314 313 311 310 308 307 306 305 304 304 303
314 319 323 327 330 332 334 335 335 334 335 334 335 335 335 336 336 336 337 338 338 338 338 336 336 335 333 332 328 325 321 317 313 311 309 307 305 304 303 303 302 301 300
312 318 322 325 327 329 329 331 331 332 333 332 331 332 332 333 333 333 333 334 334 335 336 336 336 335 335 332 330 327 323 319 315 311 309 306 304 302 301 299 298 298 296
312 316 320 323 326 327 328 327 328 330 330 330 330 331 331 331 332 332 332 331 331 331 331 332 332 332 332 333 331 329 326 323 319 315 311 308 305 302 300 298 297 295 295
315 317 319 322 324 325 325 326 327 328 328 329 329 330 330 330 330 330 330 330 330 330 330 330 330 329 330 330 330 329 327 325 321 318 314 310 306 303 300 297 295 294 294
317 318 321 323 324 323 324 325 326 326 326 326 327 327 328 327 327 327 327 327 327 328 328 329 329 328 328 328 328 327 326 324 322 321 317 313 308 305 301 298 296 295 294
316 317 319 320 320 321 322 322 322 322 322 323 323 324 325 326 325 325 326 327 327 326 327 327 329 329 328 328 327 326 324 321 320 321 320 316 311 308 303 298 297 295 295
315 317 317 316 317 319 319 318 318 318 321 321 322 322 323 323 324 324 325 325 324 324 324 324 325 325 326 326 326 325 323 320 317 316 316 317 315 310 305 300 297 296 299
313 315 315 316 318 318 317 316 316 318 319 320 319 320 321 322 322 322 322 322 321 320 319 319 319 322 322 323 323 322 320 318 314 312 313 312 311 309 306 303 299 297 296
313 314 315 315 316 317 317 316 317 319 319 318 318 318 319 319 320 318 318 318 318 317 316 316 316 316 318 319 319 318 317 315 312 311 310 309 307 305 304 301 300 299 294
314 315 315 315 316 318 318 317 317 318 316 315 315 315 316 316 317 317 317 316 316 315 315 315 314 314 315 315 315 315 314 313 310 308 306 305 305 302 300 297 297 297 293
317 318 316 316 316 317 317 317 317 318 315 314 314 314 314 314 314 314 315 314 314 313 313 313 313 313 313 314 314 314 313 312 310 308 305 302 302 299 296 293 293 293 291
318 318 317 317 316 317 316 317 318 318 316 314 314 313 313 313 313 313 313 314 312 312 311 310 310 312 312 313 313 313 313 313 312 309 305 301 299 297 294 291 289 289 287